Location: Newark
(41.9000°N, 12.4833°E)
Time: 09:29:09
(UTC+00:00)

EO-79 - Pass Details

Date: 27 May 2019
Orbit: 592 x 611 km, 97.9° (Epoch: 23 June)

Event Time Altitude Azimuth Distance (km) Brightness Sun altitude
Rises 22:45:32 0° 28° (NNE) 2,837 ? -26.5°
Reaches altitude 10° 22:48:11 10° 45° (NE) 1,929 ? -26.6°
Enters shadow 22:50:14 19° 73° (ENE) 1,448 ? -26.6°
